Home   Weather   Korbach   Past weeks

Flag for Germany Past Weather in Korbach, Hesse, Germany — Yesterday and Last 2 Weeks

Now
57 °F

Cool.


Feels Like: 57 °F
Forecast: 52 / 62 °F
Wind: 1 mph from North

Location: Fritzlar Airport

Current Time: Sep 25, 2016 at 10:56:50 PM

Latest Report: Sep 25, 2016 at 10:20 PM


Visibility: N/A

Pressure: 30.09 "Hg

Humidity: 82%

Dew Point: 52 °F

Location of KorbachLocation

Past Weather in Korbach — Graph

°F

Korbach Temperature Yesterday

Maximum temperature yesterday: 72 °F (at 2:20 PM)
Minimum temperature yesterday: 45 °F (at 4:45 AM)
Average temperature yesterday: 55 °F

High & Low Weather Summary for the Past Weeks

 TemperatureHumidityPressure
High88 °F (Sep 12, 3:20 PM)100% (Sep 11, 7:20 AM)30.33 "Hg (Sep 11, 7:20 AM)
Low39 °F (Sep 22, 6:03 AM)31% (Sep 13, 4:20 PM)29.83 "Hg (Sep 15, 4:20 PM)
Average62 °F72%30.06 "Hg
* Reported Sep 10 9:20 PM — Sep 25 9:20 PM, Korbach, Weather by CustomWeather, © 2016

Note: Actual official high and low records may vary slightly from our data, if they occured in-between our weather recording intervals... More about our weather records

Advertising

Korbach Weather History for the Previous 24 Hours

Scroll right to see more
 ConditionsComfort  
Time TempWeatherWind HumidityBarometerVisibility
9:20 PM
Sun, Sep 25
59 °FPassing clouds.1 mph77%30.09 "HgN/A
8:20 PM63 °FPassing clouds.No wind68%30.09 "HgN/A
7:20 PM64 °FPassing clouds.2 mph64%30.07 "HgN/A
6:20 PM73 °FScattered clouds.7 mph44%30.07 "HgN/A
5:20 PM75 °FPassing clouds.8 mph39%30.07 "HgN/A
4:20 PM77 °FPassing clouds.10 mph36%30.07 "HgN/A
3:20 PM77 °FPassing clouds.8 mph36%30.07 "HgN/A
2:20 PM73 °FPassing clouds.7 mph44%30.07 "HgN/A
1:20 PM72 °FPassing clouds.10 mph50%30.09 "HgN/A
12:20 PM68 °FPassing clouds.7 mph56%30.09 "HgN/A
11:20 AM63 °FPassing clouds.5 mph64%30.12 "HgN/A
10:20 AM52 °FPassing clouds.5 mph94%30.12 "HgN/A
9:45 AM50 °FFog.2 mph94%30.15 "Hg3 mi
9:20 AM48 °FFog.1 mph100%30.15 "Hg2 mi
9:01 AM46 °FFog.1 mph100%30.15 "Hg2 mi
8:20 AM43 °FFog.1 mph93%30.15 "Hg1 mi
7:20 AM41 °FFog.No wind93%30.15 "Hg0 mi
6:20 AM41 °FFog.2 mph93%30.15 "Hg1 mi
6:04 AM39 °FFog.1 mph100%30.15 "Hg1 mi
5:20 AM43 °FFog.2 mph100%30.15 "Hg4 mi
4:20 AM46 °FPassing clouds.3 mph93%30.15 "HgN/A
3:20 AM46 °FPassing clouds.2 mph93%30.18 "HgN/A
2:20 AM48 °FPassing clouds.3 mph87%30.18 "HgN/A
1:20 AM48 °FPassing clouds.2 mph94%30.18 "HgN/A
12:20 AM50 °FPassing clouds.2 mph88%30.18 "HgN/A
11:20 PM
Sat, Sep 24
50 °FPassing clouds.2 mph94%30.21 "HgN/A
10:20 PM52 °FPassing clouds.2 mph88%30.21 "HgN/A
Weather by CustomWeather, © 2016

See weather overviewHow to use our weather pages